www.pogodaiklimat.ru

Погода и климат >> Архив погоды >> Индия >> Махараштра >> Чандрапур


ПОГОДА в Чандрапуре

  • Прогноз погоды в Чандрапуре
  • Монитор погоды в Чандрапуре

АРХИВ ПОГОДЫ в Чандрапуре

Время (UTC), дата Ветер
(напр.,м/с)
 
Видим.   Явления Облачность Т
(С)
Тd
(С)
f
(%)
Тe
(С)
Тes
(С)
Комфортность P
(гПа)
Po
(гПа)
Тmin
(С)
Tmax
(С)
R
(мм)
R24
(мм)
S
(см)
09 12.08 СВ 1 2000 м 9/8 600 м
[Sc diur, vesp As op]
+32.0 +23.7 62 +43 +46 опасность
перегрева
1000.9 979.5
12 12.08 ЮВ 2 2000 м 10/8 600 м
[Sc diur, vesp As op]
+30.6 +22.7 63 +40 +40 очень
душно
1000.6 979.1 +31.0
03 13.08 З 2 2000 м 10/8 600 м
[Sc diur, vesp As op]
+26.6 +24.6 89 +38 +38 очень
душно
1004.3 982.4 +25.8 3
06 13.08 З 1 2000 м 10/8 600 м
[Sc diur, vesp As op]
+27.6 +24.4 83 +39 +40 очень
душно
1004.1 982.3
09 13.08 СЗ 1 2000 м 10/8 600 м
[Sc diur, vesp As op]
+26.2 +25.1 94 +38 +38 очень
душно
1001.9 980.1 18
12 13.08 С 2 2000 м 10/8 600 м
[Sc diur, vesp As op]
+24.4 +23.2 93 +33 +33 очень
душно
1001.8 979.8 +26.0 42
03 14.08 ЮЗ 1 2000 м 10/8 600 м
[Sc diur, vesp As op]
+25.2 +24.9 98 +36 +36 очень
душно
1004.2 982.2 +23.5 66
06 14.08 СЗ 1 2000 м 8/8 600 м
[Sc diur, vesp Ac lent]
+26.0 +25.4 97 +38 +43 очень
душно
1004.5 982.6
09 14.08 З 1 2000 м 8/8 600 м
[Sc diur, vesp Ac lent]
+28.0 +25.4 86 +41 +45 опасность
перегрева
1002.1 980.4
12 14.08 СЗ 2 2000 м 10/8 600 м
[Sc diur, vesp As op]
+26.8 +24.2 86 +37 +38 очень
душно
1002.3 980.5 +27.4 2
03 15.08 Ю 2 2000 м 10/8 600 м
[Sc diur, vesp As op]
+25.6 +24.7 95 +36 +36 очень
душно
1005.5 983.5 +24.4 2
06 15.08 ЮЗ 1 2000 м 8/8 600 м
[Sc diur, vesp Ac lent]
+26.0 +25.1 95 +37 +42 очень
душно
1005.1 983.2
09 15.08 С 1 2000 м 8/8 600 м
[Sc diur, vesp Ac lent]
+27.2 +25.8 92 +40 +44 очень
душно
1002.6 980.8
12 15.08 СЗ 2 2000 м 8/8 600 м
[Sc diur, vesp Ac lent]
+30.8 +22.6 62 +40 +41 очень
душно
1002.3 980.8 +31.6
03 16.08 ЮЗ 2 2000 м 6/6 600 м
[Sc diur, vesp As op]
+29.2 +24.9 78 +42 +45 опасность
перегрева
1006.0 984.3 +25.4
06 16.08 В 1 4000 м 5/5 600 м
[Cb calv]
+32.0 +23.7 62 +43 +56 опасность
перегрева
1005.3 983.8
09 16.08 З 1 2000 м 5/5 600 м
[Cb calv]
+33.8 +22.8 53 +44 +53 опасность
перегрева
1002.5 981.2
12 16.08 З 2 2000 м 8/8 600 м
[Sc diur, vesp Ac lent]
+32.2 +21.6 54 +41 +41 опасность
перегрева
1002.3 980.9 +34.0
03 17.08 З 2 2000 м 8/8 600 м
[Sc diur, vesp Ac lent]
+28.6 +23.7 75 +39 +41 очень
душно
1006.1 984.3 +27.8
06 17.08 С 1 2000 м 6/6 600 м
[Sc diur, vesp Ac trans]
+31.4 +23.0 61 +42 +51 опасность
перегрева
1005.4 983.9
09 17.08 С 1 2000 м 9/8 600 м
[Sc diur, vesp As op]
+32.8 +23.6 59 +44 +46 опасность
перегрева
1003.4 982.0
12 17.08 З 2 2000 м 6/5 600 м
[Cb calv]
+32.6 +23.1 57 +43 +43 опасность
перегрева
1003.0 981.6 +33.2
03 18.08 СЗ 2 2000 м 6/6 600 м
[Sc diur, vesp As op]
+29.4 +23.6 71 +40 +43 очень
душно
1006.4 984.7 +28.0
06 18.08 В 1 2000 м 5/5 600 м
[Cb calv]
+31.8 +23.4 61 +43 +55 опасность
перегрева
1006.1 984.6
09 18.08 З 1 2000 м 9/8 600 м
[Sc diur, vesp As op]
+32.2 +23.2 59 +43 +45 опасность
перегрева
1002.7 981.3
12 18.08 ЮВ 2 2000 м 9/8 600 м
[Sc diur, vesp As op]
+30.6 +22.4 62 +40 +40 очень
душно
1003.4 981.8 +32.8
03 19.08 Ю 2 2000 м 6/6 600 м
[Sc diur, vesp As op]
+27.6 +23.8 80 +38 +41 очень
душно
1006.8 985.0 +27.0
06 19.08 ЮВ 1 2000 м 6/6 600 м
[Sc diur, vesp As op]
+31.0 +23.2 63 +41 +51 опасность
перегрева
1006.4 984.8

 

Местоположение метеостанции Чандрапур (Махараштра, Индия): широта 19.97 долгота 79.30 высота над уровнем моря 193 м.

В архиве по умолчанию представлена погода в Чандрапуре за последнюю неделю. Архивные данные за месяц целиком и за предыдущие месяцы, начиная с января 2011 года, Вы можете получить, выбрав интересующий диапазон дат из раскрывающегося списка и нажав кнопку "Ввод!".


*Определитесь, кто Вы:
робот инопланетянин человек

Внимание! Время в таблицах - всемирное. Для получения местного времени необходимо прибавить поправку, которая равна 5.5 ч.

Смотрите также архив погоды в соседних городах и на ближайших метеорологических станциях:

Погода в Адилабаде (Телингана, Индия) (88 км)
Погода в Брамапури (Махараштра, Индия) (91 км)
Погода в Вардхе (Махараштра, Индия) (108 км)
Погода в Нагпуре (Махараштра, Индия) (128 км)
Погода в Яватмале (Махараштра, Индия) (129 км)
Погода в Рамагундэме (Телингана, Индия) (134 км)
Погода в Амравати (Махараштра, Индия) (191 км)
Погода в Гондии (Махараштра, Индия) (191 км)
Погода в Низамабаде (Телингана, Индия) (192 км)
Погода в Ханамконде (Телингана, Индия) (219 км)

Пояснения к столбцам:

Ветер - указаны скорость ветра в м/с - средняя за 10 мин, порывы в срок и между сроками (в фигурных скобках) и направление, откуда дует ветер: С - северный, СВ - северо-восточный, В - восточный, ЮВ - юго-восточный, Ю - южный, ЮЗ - юго-западный, З - западный, СЗ - северо-западный.
Видимость - горизонтальная дальность видимости в метрах или километрах. При видимости от 1 до 10 км при отсутствии осадков обычно наблюдается дымка, при ухудшении видимости до 1 км и менее - туман. В сухую погоду видимость может ухудшаться дымом, пылью или мглою.
Явления - указаны атмосферные явления, наблюдавшиеся в срок или в последний час перед сроком; фигурными скобками обозначены явления, наблюдавшиеся между сроками (за 1-3 часа до срока); квадратными скобками обозначены град или гололедные отложения с указанием их диаметра в мм.
Облачность - указаны через наклонную черту общая и нижняя облачность в баллах и высота нижней границы облаков в метрах; квадратными скобками обозначены формы облаков: Ci - перистые, Cs - перисто-слоистые, Cc - перисто-кучевые, Ac - высококучевые, As - высокослоистые, Sc - слоисто-кучевые, Ns - слоисто-дождевые, Cu - кучевые, Cb - кучево-дождевые. Подробнее классификацию облаков см. в Атласе облаков (PDF).
T - Температура воздуха - температура, измеренная на высоте 2 м над землей.
Td - Температура точки росы - температура, при понижении до которой содержащийся в воздухе водяной пар достигнет насыщения.
f - Относительная влажность воздуха - влажноcть воздуха, измеренная на высоте 2 м над землей.
Te - Эффективная температура - температура, которую ощущает одетый по сезону человек в тени. Характеристика душности погоды. При расчете учитывается влияние влажности воздуха и скорости ветра на теплоощущения человека.
Tes - Эффективная температура на солнце - температура, которую ощущает человек, с поправкой на солнечный нагрев. Характеристика знойности погоды. Зависит от высоты солнца над горизонтом, облачности и скорости ветра. Ночью, в пасмурную погоду, а также при ветре 12 м/с и более поправка равна нулю.
P - Атмосферное давление - приведенное к уровню моря атмосферное давление.
Po - Атмосферное давление - измеренное на уровне метеостанции атмосферное давление.
Tmin - Минимальная температура - минимум температуры воздуха на высоте 2 м над землей.
Tmax - Максимальная температура - максимум температуры воздуха на высоте 2 м над землей.
R - Количество осадков - Количество выпавших осадков за период времени, мм. При наведении курсора мыши на число - период времени, за который выпало указанное количество осадков.
R24 - Количество осадков - Количество выпавших осадков за 24 часа, мм.
S - Снежный покров - Высота снежного покрова, см. При наведении курсора мыши на число - состояние снежного покрова и степень покрытия местности в баллах.